CW4489 Marathon FL US current weather conditions

sailwx.info

Wind from 150 at 1 knots gusting 5

Air temperature 29.4° C
Dewpoint 26.0° C

Last reported at 2014-Aug-29 04:48 UTC.
Time now 2014-Aug-29 05:35 UTC

Location: N 24°44' W 081°02'.
View on Google Maps.

See reports from other nearby stations

  
Tides and Currents Weather Stations Pressure Air Temp Water Temp Dewpoint Dewpoint Depression Visibility Wind Speed Wind Dir Waves Ship Positions
date/time (UTC)wind fromknots sea level pressurealtimeterstation pressurevisibilityair tempwater tempwave heightnotes
2014-Aug-29 04:48 150 1 gusting 5 29.4
2014-Aug-29 04:28 130 2 gusting 5 29.4
2014-Aug-29 04:18 096 2 gusting 5 29.4
2014-Aug-29 04:08 128 3 gusting 5 29.4
2014-Aug-29 03:58 140 2 gusting 5 29.4
2014-Aug-29 03:38 140 2 gusting 3 29.4
2014-Aug-29 03:28 135 3 gusting 5 29.4
2014-Aug-29 03:18 130 1 gusting 6 29.4
2014-Aug-29 03:08 122 2 gusting 6 29.4
2014-Aug-29 02:48 148 3 gusting 5 30.0
2014-Aug-29 02:38 145 5 gusting 6 30.0
2014-Aug-29 02:28 111 2 gusting 7 30.0
2014-Aug-29 02:08 146 3 gusting 7 30.0
2014-Aug-29 01:58 105 5 gusting 7 29.4
2014-Aug-29 01:38 202 2 gusting 6 30.0
2014-Aug-29 01:28 117 2 gusting 6 30.0
2014-Aug-29 01:18 138 3 gusting 6 30.0
2014-Aug-29 01:08 129 4 gusting 7 29.4
2014-Aug-29 00:58 142 3 gusting 5 29.4
2014-Aug-29 00:48 123 2 gusting 7 29.4
2014-Aug-29 00:18 150 4 gusting 6 30.0
2014-Aug-29 00:08 127 1 gusting 6 30.0
2014-Aug-28 23:58 134 2 gusting 6 30.0
2014-Aug-28 23:48 141 2 gusting 5 30.0
2014-Aug-28 23:38 130 3 gusting 6 30.6
2014-Aug-28 23:28 134 2 gusting 3 30.6
2014-Aug-28 22:28 114 0 gusting 5 31.1
2014-Aug-28 22:18 082 2 gusting 4 31.1
2014-Aug-28 22:08 139 0 gusting 4 31.1
2014-Aug-28 21:58 111 1 gusting 6 31.1
2014-Aug-28 21:48 101 2 gusting 5 31.1
2014-Aug-28 21:18 125 5 gusting 5 31.1
2014-Aug-28 21:08 126 5 gusting 5 31.1
2014-Aug-28 20:58 148 2 gusting 5 31.7
2014-Aug-28 20:28 157 1 gusting 6 31.7
2014-Aug-28 20:08 144 2 gusting 2 31.7
2014-Aug-28 19:58 162 1 gusting 5 32.2
2014-Aug-28 19:28 207 2 gusting 5 31.7
2014-Aug-28 19:18 161 2 gusting 5 31.7
2014-Aug-28 18:58 140 1 gusting 6 32.2
2014-Aug-28 18:49 180 0 gusting 4 32.2
2014-Aug-28 18:38 198 1 gusting 3 31.7
2014-Aug-28 18:28 176 1 gusting 5 31.7
2014-Aug-28 18:18 188 0 gusting 4 31.7
2014-Aug-28 17:58 183 0 gusting 5 31.7
2014-Aug-28 17:38 167 0 gusting 5 32.2
2014-Aug-28 17:28 184 1 gusting 4 32.2
2014-Aug-28 16:58 144 2 gusting 4 32.2
2014-Aug-28 16:38 173 1 gusting 4 31.1
2014-Aug-28 16:28 153 0 gusting 3 31.1
2014-Aug-28 15:08 198 0 gusting 3 30.0
2014-Aug-28 14:58 206 1 gusting 3 30.0
2014-Aug-28 14:48 213 2 gusting 5 30.0
2014-Aug-28 14:38 199 2 gusting 5 30.0
2014-Aug-28 14:28 196 2 gusting 5 30.0
2014-Aug-28 14:18 200 3 gusting 4 30.0
2014-Aug-28 14:08 205 4 gusting 5 30.0
2014-Aug-28 13:58 189 2 gusting 6 30.0
2014-Aug-28 13:38 188 4 gusting 5 29.4
2014-Aug-28 13:28 196 2 gusting 4 29.4
2014-Aug-28 12:58 202 2 gusting 5 29.4
2014-Aug-28 12:38 199 5 gusting 8 28.9
2014-Aug-28 12:28 185 4 gusting 8 28.9
2014-Aug-28 12:18 198 3 gusting 8 28.9
2014-Aug-28 12:08 179 8 gusting 9 28.9
2014-Aug-28 11:58 239 6 gusting 11 28.9
2014-Aug-28 11:38 205 8 gusting 11 28.9
2014-Aug-28 11:08 180 4 gusting 11 28.3
2014-Aug-28 10:58 204 8 gusting 11 28.9
2014-Aug-28 10:48 153 8 gusting 11 28.3
2014-Aug-28 10:38 178 7 gusting 11 28.3
2014-Aug-28 10:28 171 6 gusting 8 28.3
2014-Aug-28 10:18 228 6 gusting 10 27.8
2014-Aug-28 10:08 150 6 gusting 8 27.8
2014-Aug-28 09:38 213 6 gusting 8 27.8
2014-Aug-28 09:28 221 1 gusting 5 26.7
2014-Aug-28 09:18 250 2 gusting 4 26.7
2014-Aug-28 08:48 204 8 gusting 13 27.8
2014-Aug-28 08:28 180 1 gusting 4 28.9
2014-Aug-28 07:48 142 3 gusting 6 28.9
2014-Aug-28 07:38 129 1 gusting 6 28.9
2014-Aug-28 07:28 171 1 gusting 3 28.9
2014-Aug-28 07:08 192 2 gusting 6 28.9
2014-Aug-28 06:58 198 2 gusting 6 28.9
2014-Aug-28 06:48 198 2 gusting 6 28.9
2014-Aug-28 06:28 198 0 gusting 2 28.3
2014-Aug-28 06:08 197 1 gusting 4 28.3
2014-Aug-28 04:38 207 2 gusting 6 27.8
2014-Aug-28 04:08 223 2 gusting 6 27.8
2014-Aug-28 03:29 209 8 gusting 12 28.3
2014-Aug-28 03:09 203 13 gusting 13 28.9
2014-Aug-28 02:39 145 2 gusting 9 30.0
2014-Aug-28 02:19 132 2 gusting 7 29.4
2014-Aug-28 01:59 156 3 gusting 7 30.0
2014-Aug-28 01:49 135 0 gusting 6 30.0
2014-Aug-28 01:39 076 1 gusting 6 30.0
2014-Aug-28 01:19 063 2 gusting 6 30.0
2014-Aug-28 01:09 076 30.0
2014-Aug-28 00:49 060 2 gusting 6 30.0
2014-Aug-28 00:09 053 30.0
2014-Aug-27 23:39 065 1 gusting 7 30.0
2014-Aug-27 23:29 051 4 gusting 6 30.6
2014-Aug-27 22:59 070 3 gusting 5 31.1
2014-Aug-27 22:49 057 5 gusting 5 30.6
2014-Aug-27 22:39 050 3 gusting 6 31.1
2014-Aug-27 22:29 093 0 gusting 6 31.1
2014-Aug-27 22:19 078 31.1
2014-Aug-27 22:09 063 2 gusting 6 31.1
2014-Aug-27 21:39 111 2 gusting 6 32.2
2014-Aug-27 21:09 040 2 gusting 5 32.2
2014-Aug-27 20:39 076 0 gusting 6 32.8
2014-Aug-27 20:29 096 4 gusting 6 32.8
2014-Aug-27 20:19 053 3 gusting 6 32.2
2014-Aug-27 19:59 107 1 gusting 5 32.8
2014-Aug-27 19:29 104 2 gusting 6 32.8
2014-Aug-27 18:59 087 5 gusting 6 33.3
2014-Aug-27 18:29 105 2 gusting 5 32.8
2014-Aug-27 17:59 094 1 gusting 6 32.8
2014-Aug-27 17:49 101 2 gusting 5 32.8
2014-Aug-27 17:29 065 6 gusting 6 33.3
2014-Aug-27 17:09 071 1 gusting 6 32.8
2014-Aug-27 16:59 091 0 gusting 5 33.3
2014-Aug-27 16:49 074 32.8
2014-Aug-27 16:39 064 2 gusting 6 32.8
2014-Aug-27 15:59 080 2 gusting 6 32.2
2014-Aug-27 15:39 074 2 gusting 6 32.8
2014-Aug-27 15:09 085 3 gusting 5 31.7
2014-Aug-27 14:39 046 2 gusting 5 31.1
2014-Aug-27 14:29 067 3 gusting 6 31.1
2014-Aug-27 14:19 026 3 gusting 7 31.1
2014-Aug-27 13:59 037 0 gusting 6 30.6
2014-Aug-27 13:39 350 2 gusting 7 30.0
2014-Aug-27 13:29 040 5 gusting 6 30.6
2014-Aug-27 13:09 076 30.6
2014-Aug-27 12:09 069 28.9
2014-Aug-27 11:49 090 0 gusting 3 28.9
2014-Aug-27 11:39 020 0 gusting 4 28.9
2014-Aug-27 11:19 028 28.9
2014-Aug-27 10:59 072 28.9
2014-Aug-27 10:39 049 28.3
2014-Aug-27 10:19 077 28.9
2014-Aug-27 09:59 078 2 gusting 4 28.3
2014-Aug-27 09:19 069 1 gusting 3 28.3
2014-Aug-27 09:09 075 2 gusting 2 28.3
2014-Aug-27 08:49 067 28.3
2014-Aug-27 08:39 076 0 gusting 2 28.3
2014-Aug-27 08:29 063 0 gusting 3 28.3
2014-Aug-27 08:19 089 28.3
2014-Aug-27 07:59 070 1 gusting 2 28.3
2014-Aug-27 07:49 086 0 gusting 3 28.3
2014-Aug-27 07:39 101 28.3
2014-Aug-27 07:19 044 28.3
2014-Aug-27 07:09 048 28.9
2014-Aug-27 06:59 079 28.9
2014-Aug-27 06:49 040 0 gusting 5 28.9
2014-Aug-27 06:19 069 28.9
2014-Aug-27 05:49 044 1 gusting 5 28.9
2014-Aug-27 05:39 061 0 gusting 5 28.9